Location: Bjelajci
(45.0103°N, 16.1758°E)
Time: 04:32:11
(UTC+00:00)

Helios 1B rocket - Pass Details

Date: 14 July 2020
Orbit: 574 x 584 km, 98.1° (Epoch: 11 August)

Event Time Altitude Azimuth Distance (km) Brightness Sun altitude
Rises 00:26:41 0° 1° (N) 2,808 7.2 -20.6°
Reaches altitude 10° 00:29:07 10° 348° (NNW) 1,902 5.9 -20.4°
Maximum altitude 00:32:28 25° 294° (WNW) 1,200 4.0 -20.2°
Enters shadow 00:33:25 22° 272° (W) 1,268 3.9 -20.1°
